Date String (YYYY-MM-DD hh:mm:ss) UTC,Instrument flags,absolute air pressure of the measurement (hPa),sample flow rate (lpm),inlet stack bypass flow (lpm),air temperature of the measurement (°C),ambient temperature measured by the external sensor (°C),aerosol sample conditioner tube jacket temperature (°C),OPC LED temperature (°C),internal box temperature (°C),relative humidity of the measurement (%),span deviation,mass concentration of particles derived from Lorenz-Mie calculation of OPC scattering (μg/m³),mass concentration of particles derived from Lorenz-Mie calculation of OPC scattering (μg/m³),mass concentration of particles derived from Lorenz-Mie calculation of OPC scattering (μg/m³)
DateTimeUTC,F1_M11,P_M11,Q1_M11,Q2_M11,T1_M11,T2_M11,T3_M11,T4_M11,T5_M11,U1_M11,ZSPAN_M11,X0_M11,X2_M11,X1_M11
2023-07-20 09:00:00,SystemResetWarning,0838.8,5.00,000.00,029.7,028.1,000.0,038.2,031.1,30.3,0000.0,0011.69,0006.86,0006.01
2023-07-20 09:01:00,SystemResetWarning,0838.8,5.00,000.00,029.7,028.1,000.0,038.2,031.1,30.1,0000.0,0011.91,0006.85,0006.00
2023-07-20 09:02:00,SystemResetWarning,0838.8,5.00,000.00,029.7,028.1,000.0,038.2,031.1,30.3,0000.0,0011.86,0006.79,0005.95
2023-07-20 09:03:00,SystemResetWarning,0838.7,5.00,000.00,029.7,028.1,000.0,038.2,031.1,30.4,0000.0,0011.52,0006.72,0005.90
2023-07-20 09:04:00,SystemResetWarning,0838.7,5.00,000.00,029.7,028.2,000.0,038.2,031.2,30.2,0000.0,0011.13,0006.64,0005.84
2023-07-20 09:05:00,SystemResetWarning,0838.6,5.00,000.00,029.7,028.2,000.0,038.2,031.2,30.4,0000.0,0011.87,0006.63,0005.82
2023-07-20 09:06:00,SystemResetWarning,0838.6,5.00,000.00,029.8,028.2,000.0,038.2,031.2,29.8,0000.0,0011.93,0006.60,0005.80
2023-07-20 09:07:00,SystemResetWarning,0838.6,5.00,000.00,029.8,028.2,000.0,038.2,031.2,29.6,0000.0,0012.03,0006.56,0005.76
2023-07-20 09:08:00,SystemResetWarning,0838.6,5.00,000.00,029.8,028.2,000.0,038.2,031.2,29.7,0000.0,0013.11,0006.45,0005.63
2023-07-20 09:09:00,SystemResetWarning,0838.6,5.00,000.00,029.8,028.2,000.0,038.2,031.2,28.9,0000.0,0013.73,0006.29,0005.44
2023-07-20 09:10:00,SystemResetWarning,0838.7,5.00,000.00,029.8,028.2,000.0,038.2,031.2,29.5,0000.0,0014.80,0006.43,0005.34
2023-07-20 09:11:00,SystemResetWarning,0838.7,5.00,000.00,029.8,028.2,000.0,038.2,031.2,29.8,0000.0,0015.54,0006.45,0005.20
2023-07-20 09:12:00,SystemResetWarning,0838.7,5.00,000.00,029.8,028.2,000.0,038.3,031.2,29.8,0000.0,0015.73,0006.37,0005.01
2023-07-20 09:13:00,SystemResetWarning,0838.8,5.00,000.00,029.8,028.3,000.0,038.3,031.2,29.5,-000.2,0016.05,0006.34,0004.83
2023-07-20 09:14:00,SystemResetWarning,0838.7,5.00,000.00,029.8,028.3,000.0,038.3,031.3,29.2,-000.1,0016.53,0006.31,0004.62
2023-07-20 09:15:00,SystemResetWarning,0838.7,4.99,000.00,029.8,028.3,000.0,038.3,031.3,29.4,0000.1,0016.65,0006.25,0004.40
2023-07-20 09:16:00,SystemResetWarning,0838.7,5.00,000.00,029.8,028.3,000.0,038.3,031.3,29.6,0000.4,0015.83,0006.12,0004.15
2023-07-20 09:17:00,SystemResetWarning,0838.8,5.00,000.00,029.8,028.3,000.0,038.3,031.3,29.2,0001.2,0015.96,0006.00,0003.93
2023-07-20 09:18:00,SystemResetWarning,0838.7,5.00,000.00,029.8,027.4,000.0,038.2,031.3,28.8,0001.7,0016.35,0005.83,0003.70
2023-07-20 09:19:00,SystemResetWarning,0838.7,5.01,000.00,029.8,025.7,000.0,038.1,031.0,28.3,0002.7,0015.48,0005.69,0003.53
2023-07-20 09:20:00,SystemResetWarning,0838.7,5.00,000.00,029.7,025.1,000.0,038.0,030.8,28.0,0002.9,0014.38,0005.56,0003.41
2023-07-20 09:21:00,SystemResetWarning,0838.7,5.01,000.00,029.5,025.3,000.0,038.0,030.5,28.5,0000.8,0012.93,0005.11,0003.21
2023-07-20 09:22:00,SystemResetWarning,0838.6,5.01,000.00,029.4,025.7,000.0,038.0,030.5,28.7,0000.0,0011.84,0004.77,0002.99
2023-07-20 09:23:00,SystemResetWarning,0838.6,5.00,000.00,029.4,026.1,000.0,038.0,030.6,28.9,0000.0,0010.87,0004.47,0002.75
2023-07-20 09:24:00,SystemResetWarning,0838.6,5.00,000.00,029.4,026.4,000.0,038.0,030.7,29.2,0000.0,0010.06,0004.17,0002.53
2023-07-20 09:25:00,SystemResetWarning,0838.6,5.00,000.00,029.4,026.8,000.0,038.0,030.8,29.1,0000.0,0009.37,0003.91,0002.33
2023-07-20 09:26:00,SystemResetWarning,0838.6,5.00,000.00,029.4,027.0,000.0,038.0,030.8,29.9,0000.0,0008.81,0003.66,0002.14
2023-07-20 09:27:00,SystemResetWarning,0838.6,5.00,000.00,029.4,027.2,000.0,038.0,030.8,30.5,0000.0,0008.25,0003.42,0002.00
2023-07-20 09:28:00,SystemResetWarning,0838.5,4.99,000.00,029.4,027.4,000.0,038.0,030.9,31.0,0000.0,0007.79,0003.25,0001.88
2023-07-20 09:29:00,SystemResetWarning,0838.4,4.99,000.00,029.4,027.6,000.0,038.0,030.9,30.6,0000.0,0006.80,0003.12,0001.77
2023-07-20 09:30:00,SystemResetWarning,0838.4,5.00,000.00,029.4,027.7,000.0,038.0,030.9,31.0,0000.0,0006.10,0003.06,0001.70
2023-07-20 09:31:00,SystemResetWarning,0838.4,5.00,000.00,029.4,027.8,000.0,038.0,031.0,31.2,0000.0,0005.68,0002.90,0001.64
2023-07-20 09:32:00,SystemResetWarning,0838.4,5.01,000.00,029.5,027.9,000.0,038.0,031.0,31.1,0000.0,0005.38,0002.82,0001.58
2023-07-20 09:33:00,SystemResetWarning,0838.4,5.00,000.00,029.5,027.9,000.0,038.0,031.0,31.0,0000.0,0005.31,0002.79,0001.53
2023-07-20 09:34:00,SystemResetWarning,0838.4,5.01,000.00,029.5,028.0,000.0,038.0,031.0,31.5,0000.0,0005.29,0002.72,0001.47
2023-07-20 09:35:00,SystemResetWarning,0838.4,5.01,000.00,029.5,028.0,000.0,038.0,031.1,31.5,0000.0,0005.25,0002.64,0001.42
2023-07-20 09:36:00,SystemResetWarning,0838.4,5.00,000.00,029.5,028.1,000.0,038.0,031.1,31.3,0000.0,0005.18,0002.58,0001.38
2023-07-20 09:37:00,SystemResetWarning,0838.4,4.99,000.00,029.6,028.1,000.0,038.0,031.1,31.7,0000.0,0005.14,0002.49,0001.36
2023-07-20 09:38:00,SystemResetWarning,0838.4,5.00,000.00,029.6,028.2,000.0,038.0,031.1,31.7,0000.0,0005.07,0002.44,0001.33
2023-07-20 09:39:00,SystemResetWarning,0838.3,4.99,000.00,029.6,028.2,000.0,038.0,031.2,30.9,0000.0,0005.76,0002.38,0001.32
2023-07-20 09:40:00,SystemResetWarning,0838.2,5.00,000.00,029.6,028.2,000.0,038.0,031.2,30.7,0000.0,0005.90,0002.41,0001.30
2023-07-20 09:41:00,SystemResetWarning,0838.1,5.00,000.00,029.6,028.2,000.0,038.0,031.2,29.9,0000.0,0005.70,0002.32,0001.28
2023-07-20 09:42:00,SystemResetWarning,0838.2,5.00,000.00,029.6,028.2,000.0,038.1,031.2,29.9,0000.0,0005.58,0002.27,0001.27
2023-07-20 09:43:00,SystemResetWarning,0838.2,5.00,000.00,029.7,028.3,000.0,038.1,031.2,30.2,0000.0,0005.60,0002.25,0001.28
2023-07-20 09:44:00,SystemResetWarning,0838.2,5.00,000.00,029.7,028.3,000.0,038.1,031.2,30.6,0000.0,0005.46,0002.19,0001.28
2023-07-20 09:45:00,SystemResetWarning,0838.2,5.01,000.00,029.7,028.3,000.0,038.1,031.2,31.0,0000.0,0005.37,0002.20,0001.28
2023-07-20 09:46:00,SystemResetWarning,0838.2,5.01,000.00,029.7,028.3,000.0,038.1,031.3,31.1,0000.0,0005.46,0002.26,0001.29
2023-07-20 09:47:00,SystemResetWarning,0838.2,5.01,000.00,029.7,028.3,000.0,038.1,031.3,30.3,0000.0,0005.45,0002.27,0001.30
2023-07-20 09:48:00,SystemResetWarning,0838.2,4.99,000.00,029.7,028.4,000.0,038.1,031.3,30.5,0000.0,0005.30,0002.27,0001.30
2023-07-20 09:49:00,SystemResetWarning,0838.2,4.99,000.00,029.7,028.4,000.0,038.1,031.3,30.7,0000.0,0005.34,0002.31,0001.30
2023-07-20 09:50:00,SystemResetWarning,0838.2,5.00,000.00,029.8,028.5,000.0,038.2,031.3,30.7,0000.0,0004.35,0002.28,0001.29
2023-07-20 09:51:00,SystemResetWarning,0838.1,5.00,000.00,029.8,028.5,000.0,038.2,031.3,30.8,0000.0,0004.06,0002.19,0001.27
2023-07-20 09:52:00,SystemResetWarning,0837.9,5.00,000.00,029.8,028.5,000.0,038.2,031.4,30.3,0000.0,0003.90,0002.18,0001.27
2023-07-20 09:53:00,SystemResetWarning,0837.8,5.00,000.00,029.8,028.6,000.0,038.2,031.4,30.3,0000.0,0003.82,0002.15,0001.26
2023-07-20 09:54:00,SystemResetWarning,0837.7,4.99,000.00,029.8,028.1,000.0,038.2,031.4,30.2,0000.0,0003.67,0002.12,0001.26
2023-07-20 09:55:00,SystemResetWarning,0837.6,5.01,000.00,029.8,026.1,000.0,038.1,031.2,30.1,0000.0,0003.62,0002.10,0001.26
2023-07-20 09:56:00,SystemResetWarning,0837.6,5.01,000.00,029.7,025.2,000.0,038.0,030.9,29.5,0000.0,0003.63,0002.10,0001.26
2023-07-20 09:57:00,SystemResetWarning,0837.6,5.00,000.00,029.5,025.2,000.0,038.0,030.6,30.2,0000.0,0003.55,0002.05,0001.24
2023-07-20 09:58:00,SystemResetWarning,0837.6,5.00,000.00,029.4,025.6,000.0,038.0,030.6,30.2,0000.0,0003.60,0002.03,0001.24
2023-07-20 09:59:00,SystemResetWarning,0837.6,4.99,000.00,029.4,026.0,000.0,038.0,030.6,29.9,0000.0,0003.54,0002.00,0001.22
